Aurora, OR

5:06 AM PST on February 07, 2016 (GMT -0800)
Aurora State

Weather History for KUAO - February, 2013

Change the Weather History Date:

Tuesday, February 12, 2013

  Actual Average Record
Temperature  
Mean Temperature 48 °F -  
Max Temperature 55 °F - 60 °F (2003)
Min Temperature 45 °F - 25 °F (2009)
Degree Days  
Heating Degree Days 15    
Month to date heating degree days 263  
Since 1 July heating degree days 2793  
Cooling Degree Days 0    
Month to date cooling degree days 0  
Year to date cooling degree days 0  
Moisture  
Dew Point 44 °F    
Average Humidity 80    
Maximum Humidity 93    
Minimum Humidity 66    
Precipitation  
Precipitation 0.00 in - 0.61 in (1998)
Month to date precipitation 0.47  
Year to date precipitation 2.48  
Sea Level Pressure  
Sea Level Pressure 30.45 in    
Wind  
Wind Speed 8 mph (SSW)    
Max Wind Speed 13 mph    
Max Gust Speed 18 mph    
Visibility 10 miles    
Events      
T = Trace of Precipitation, MM = Missing Value Source: NWS Daily Summary

Daily Weather History Graph

Daily Weather History Graph

Search for Another Location

Airport or City:

Trip Planner

Search our weather history database for the weather conditions in past years. The results will help you decide how hot, cold, wet, or windy it might be!

Date:

Astronomy

Feb. 12, 2013 Rise Set
Actual Time 7:16 AM PST 5:34 PM PST
Civil Twilight 6:45 AM PST 6:05 PM PST
Nautical Twilight 6:11 AM PST 6:40 PM PST
Astronomical Twilight 5:37 AM PST 7:14 PM PST
Moon 8:06 AM PST (2/12) 8:53 PM PST (2/12)
Length of Visible Light 11h 19m
Length of Day
10h 18m
Waxing Crescent, 8% of the Moon is Illuminated
Feb 12
Waxing Crescent
Feb 17
First Quarter
Feb 25
Full
Mar 4
Last Quarter
Mar 11
New

Hourly Weather History & Observations

Time (PST) Temp. Windchill Dew Point Humidity Pressure Visibility Wind Dir Wind Speed Gust Speed Precip Events Conditions
12:53 AM 45.0 °F 40.6 °F 42.1 °F 90% 30.42 in 10.0 mi SSW 8.1 mph - N/A   Overcast
1:53 AM 45.0 °F 41.8 °F 42.1 °F 90% 30.43 in 10.0 mi SSW 5.8 mph - N/A   Overcast
2:53 AM 45.0 °F 41.8 °F 42.1 °F 90% 30.43 in 10.0 mi SSW 5.8 mph - N/A   Overcast
3:11 AM 44.6 °F 40.2 °F 42.8 °F 93% 30.42 in 10.0 mi SSW 8.1 mph - N/A   Overcast
3:53 AM 45.0 °F 41.2 °F 42.1 °F 90% 30.43 in 10.0 mi SSW 6.9 mph - N/A   Overcast
4:42 AM 44.6 °F 39.7 °F 42.8 °F 93% 30.42 in 10.0 mi South 9.2 mph - N/A   Overcast
4:53 AM 45.0 °F 39.7 °F 43.0 °F 93% 30.42 in 10.0 mi South 10.4 mph - N/A   Overcast
5:50 AM 44.6 °F 40.2 °F 42.8 °F 93% 30.41 in 10.0 mi SSW 8.1 mph 18.4 mph N/A   Overcast
5:53 AM 45.0 °F 40.1 °F 43.0 °F 93% 30.42 in 10.0 mi SSW 9.2 mph 18.4 mph N/A   Overcast
6:20 AM 44.6 °F 40.2 °F 42.8 °F 93% 30.42 in 10.0 mi South 8.1 mph - N/A   Overcast
6:53 AM 45.0 °F 39.7 °F 43.0 °F 93% 30.43 in 10.0 mi SSW 10.4 mph - N/A   Overcast
7:24 AM 44.6 °F 39.2 °F 42.8 °F 93% 30.43 in 10.0 mi SSW 10.4 mph - N/A   Overcast
7:53 AM 45.0 °F 39.7 °F 43.0 °F 93% 30.45 in 10.0 mi SSW 10.4 mph - N/A   Overcast
8:53 AM 46.0 °F 41.4 °F 44.1 °F 93% 30.46 in 10.0 mi SSW 9.2 mph - N/A   Overcast
9:09 AM 46.4 °F 42.4 °F 44.6 °F 93% 30.46 in 10.0 mi SSW 8.1 mph - N/A   Overcast
9:33 AM 46.4 °F 42.4 °F 44.6 °F 93% 30.47 in 10.0 mi SSW 8.1 mph - N/A   Overcast
9:43 AM 46.4 °F 41.9 °F 44.6 °F 93% 30.47 in 10.0 mi SSW 9.2 mph - N/A   Overcast
9:53 AM 48.0 °F - 44.1 °F 86% 30.48 in 10.0 mi SSW 11.5 mph - N/A   Overcast
10:53 AM 48.9 °F - 45.0 °F 86% 30.49 in 10.0 mi South 6.9 mph - N/A   Overcast
11:40 AM 51.8 °F - 44.6 °F 76% 30.49 in 10.0 mi SW 8.1 mph - N/A   Overcast
11:50 AM 51.8 °F - 44.6 °F 76% 30.48 in 10.0 mi SSW 6.9 mph - N/A   Overcast
11:53 AM 51.1 °F - 45.0 °F 80% 30.49 in 10.0 mi SSW 9.2 mph - N/A   Overcast
12:00 PM 51.8 °F - 44.6 °F 76% 30.48 in 10.0 mi SSW 6.9 mph - N/A   Overcast
12:29 PM 51.8 °F - 44.6 °F 76% 30.48 in 10.0 mi SSW 8.1 mph - N/A   Mostly Cloudy
12:53 PM 53.1 °F - 45.0 °F 74% 30.48 in 10.0 mi SSW 8.1 mph - N/A   Mostly Cloudy
1:32 PM 53.6 °F - 44.6 °F 72% 30.46 in 10.0 mi SW 8.1 mph - N/A   Mostly Cloudy
1:53 PM 53.1 °F - 44.1 °F 71% 30.46 in 10.0 mi SW 8.1 mph - N/A   Overcast
2:41 PM 53.6 °F - 44.6 °F 72% 30.45 in 10.0 mi SW 6.9 mph - N/A   Overcast
2:53 PM 53.1 °F - 44.1 °F 71% 30.45 in 10.0 mi SW 10.4 mph - N/A   Overcast
3:53 PM 53.1 °F - 43.0 °F 69% 30.46 in 10.0 mi WSW 6.9 mph - N/A   Overcast
4:53 PM 52.0 °F - 44.1 °F 74% 30.46 in 10.0 mi SW 5.8 mph - N/A   Overcast
5:53 PM 50.0 °F - 45.0 °F 83% 30.45 in 10.0 mi SSW 5.8 mph - N/A   Overcast
6:53 PM 50.0 °F - 45.0 °F 83% 30.46 in 10.0 mi SW 4.6 mph - N/A   Overcast
7:53 PM 50.0 °F - 46.0 °F 86% 30.46 in 10.0 mi SW 3.5 mph - N/A   Overcast
8:19 PM 50.0 °F - 46.4 °F 87% 30.46 in 10.0 mi Calm Calm - N/A   Overcast
8:40 PM 50.0 °F - 46.4 °F 87% 30.45 in 10.0 mi SW 4.6 mph - N/A   Overcast
8:48 PM 50.0 °F - 46.4 °F 87% 30.46 in 10.0 mi Calm Calm - N/A   Overcast
8:53 PM 50.0 °F - 46.0 °F 86% 30.46 in 10.0 mi SSW 3.5 mph - N/A   Overcast
9:35 PM 48.2 °F - 44.6 °F 87% 30.46 in 10.0 mi SSW 3.5 mph - N/A   Overcast
9:53 PM 48.9 °F - 44.1 °F 83% 30.46 in 10.0 mi SSW 5.8 mph - N/A   Overcast
10:53 PM 48.0 °F - 43.0 °F 83% 30.46 in 10.0 mi SSW 9.2 mph - N/A   Overcast
11:53 PM 48.0 °F - 43.0 °F 83% 30.47 in 10.0 mi SW 3.5 mph - N/A   Overcast